Weather History for Wolf Point, MT

Change the Weather History Date:

Thursday, July 3, 2014

  Actual Average Record
Temperature  
Mean Temperature 69 °F -  
Max Temperature 86 °F 83 °F 100 °F (2012)
Min Temperature 52 °F 53 °F 44 °F (2002)
Degree Days  
Heating Degree Days 0    
Cooling Degree Days 4    
Growing Degree Days 20 (Base 50)    
Moisture  
Dew Point 53 °F    
Average Humidity 56    
Maximum Humidity 86    
Minimum Humidity 31    
Precipitation  
Precipitation 0.00 in 0.07 in 0.73 in (2000)
Month to date precipitation T 0.22  
Year to date precipitation 4.52 6.63  
Sea Level Pressure  
Sea Level Pressure 30.00 in    
Wind  
Wind Speed 9 mph (ESE)    
Max Wind Speed 13 mph    
Max Gust Speed 23 mph    
Visibility 10 miles    
Events      
T = Trace of Precipitation, MM = Missing Value Source: NWS Daily Summary

Daily Weather History Graph

Daily Weather History Graph

Search for Another Location

Airport:

Trip Planner

Search our weather history database for the weather conditions in past years. The results will help you decide how hot, cold, wet, or windy it might be!

Date:

Astronomy

Jul. 03, 2014 Rise Set
Actual Time 5:07 AM MDT 9:05 PM MDT
Civil Twilight 4:26 AM MDT 9:45 PM MDT
Nautical Twilight 3:30 AM MDT 10:42 PM MDT
Astronomical Twilight 1:58 AM MDT 12:12 AM MDT
Moon 11:39 AM MDT (7/3) 11:56 PM MDT (7/3)
Length of Visible Light 17h 19m
Length of Day
15h 57m
Waxing Crescent, 33% of the Moon is Illuminated
Jul 3
Waxing Crescent
Jul 5
First Quarter
Jul 12
Full
Jul 18
Last Quarter
Jul 26
New

Hourly Weather History & Observations

Time (MDT) Temp. Heat Index Dew Point Humidity Pressure Visibility Wind Dir Wind Speed Gust Speed Precip Events Conditions
12:53 AM 55.9 °F - 50.0 °F 80% 30.11 in 10.0 mi ENE 8.1 mph - N/A   Clear
1:53 AM 54.0 °F - 48.9 °F 83% 30.10 in 10.0 mi ENE 8.1 mph - N/A   Clear
2:53 AM 54.0 °F - 48.9 °F 83% 30.10 in 10.0 mi ENE 8.1 mph - N/A   Clear
3:53 AM 53.1 °F - 48.9 °F 86% 30.09 in 10.0 mi ENE 9.2 mph - N/A   Clear
4:53 AM 53.1 °F - 48.0 °F 83% 30.09 in 10.0 mi ENE 9.2 mph - N/A   Clear
5:53 AM 54.0 °F - 48.9 °F 83% 30.09 in 10.0 mi ENE 10.4 mph - N/A   Clear
6:53 AM 57.0 °F - 50.0 °F 77% 30.08 in 10.0 mi ENE 12.7 mph - N/A   Clear
7:53 AM 60.8 °F - 51.8 °F 72% 30.09 in 10.0 mi East 10.4 mph - N/A   Clear
8:53 AM 66.9 °F - 52.0 °F 59% 30.07 in 10.0 mi East 10.4 mph - N/A   Clear
9:53 AM 73.0 °F - 52.0 °F 48% 30.06 in 10.0 mi ESE 8.1 mph - N/A   Clear
10:53 AM 75.9 °F - 53.1 °F 45% 30.04 in 10.0 mi ESE 12.7 mph 18.4 mph N/A   Clear
11:53 AM 81.0 °F 80.4 °F 53.1 °F 38% 30.02 in 10.0 mi SE 10.4 mph 23.0 mph N/A   Clear
12:53 PM 80.6 °F - 51.8 °F 37% 30.02 in 10.0 mi ESE 12.7 mph 19.6 mph N/A   Clear
1:53 PM 82.9 °F - 51.1 °F 33% 29.99 in 10.0 mi SE 10.4 mph 19.6 mph N/A   Clear
2:53 PM 86.0 °F - 52.0 °F 31% 29.97 in 10.0 mi SSE 10.4 mph 19.6 mph N/A   Clear
3:53 PM 84.9 °F 83.2 °F 53.1 °F 33% 29.94 in 10.0 mi SE 5.8 mph 18.4 mph N/A   Clear
4:53 PM 84.9 °F 83.3 °F 54.0 °F 34% 29.92 in 10.0 mi SSE 8.1 mph 17.3 mph N/A   Clear
5:53 PM 84.9 °F 83.6 °F 55.0 °F 36% 29.91 in 10.0 mi SSE 10.4 mph - N/A   Clear
6:53 PM 82.9 °F 82.0 °F 55.0 °F 38% 29.90 in 10.0 mi SE 11.5 mph 19.6 mph N/A   Clear
7:53 PM 80.1 °F 80.2 °F 55.9 °F 43% 29.91 in 10.0 mi SE 5.8 mph - N/A   Clear
8:53 PM 77.0 °F - 57.0 °F 50% 29.90 in 10.0 mi ESE 8.1 mph - N/A   Clear
9:53 PM 73.0 °F - 57.0 °F 57% 29.91 in 10.0 mi ENE 8.1 mph - N/A   Clear
10:53 PM 70.0 °F - 57.0 °F 63% 29.89 in 10.0 mi ENE 8.1 mph - N/A   Clear
11:53 PM 71.1 °F - 57.0 °F 61% 29.89 in 10.0 mi ESE 8.1 mph - N/A   Clear